User: anonymous   Login
Location: Unspecified
(0.0000°N, 0.0000°E)
Time: 08:57:22
(UTC+00:00)
Language:

SHAONIAN XING - Orbit

View from above orbital plane
View from above orbital plane
View from above satellite
View from above satellite

Ground track
Ground track

The orbit data is extracted from the following two-line orbital elements,

1 43199U 18015H   19345.94192119 +.00001115 +00000-0 +47097-4 0  9998
2 43199 097.3993 110.5118 0018271 047.8869 074.1313 15.25230613103221
Epoch (UTC): 11 December 2019 22:36:21
Eccentricity: 0.0018271
inclination: 97.3993°
perigee height: 477 km
apogee height: 502 km
right ascension of ascending node: 110.5118°
argument of perigee: 47.8869°
revolutions per day: 15.25230613
mean anomaly at epoch: 74.1313°
orbit number at epoch: 10322

The dashed part of the orbit path shows where the satellite is in the earth's shadow,  

DLR